Dewpoint
8 7 9 10 11 11 12 11 11 11 12 11 10 7 6 10 11 11 11 11 10 8 7 6 4 4 4 3 5 4 1 -0 1 0 1 -1 0 6 6 6 6 8 9
7 5 6 8 9 9 10 10 10 11 11 11 12 9 5 6 6 6 7 7 6 6 6 7 6 5 5 4 5 6 5 2 -0 -2 -0 -1 -2 3 4 3 5 8 8
8 5 4 4 4 4 5 6 7 7 11 11 11 12 10 8 7 8 8 8 8 6 6 6 9 8 9 8 7 7 7 7 6 5 2 0 -1 3 4 2 1 6 9
11 7 4 2 2 2 2 6 7 9 10 8 7 11 12 12 11 10 11 11 9 7 10 8 7 7 10 11 11 10 9 9 7 6 6 2 1 6 4 8 6 4 5
11 9 5 2 0 -1 -1 -0 0 2 4 5 -0 6 6 11 12 12 12 12 11 11 11 11 9 8 8 8 7 9 7 6 8 8 7 5 10 9 7 10 9 7 1
7 6 3 2 -0 -2 -2 -2 -2 -2 -2 -2 -2 -1 5 10 11 12 11 10 12 10 10 10 8 7 9 8 7 8 6 6 7 9 9 8 8 11 11 11 10 8 7
3 2 2 1 -0 -1 -2 -2 -2 -1 -0 1 -1 -2 -2 -3 1 8 11 11 8 7 8 9 10 10 9 9 8 7 7 5 5 10 10 9 8 9 10 9 10 9 9
3 3 5 5 3 1 -1 -2 -1 0 1 2 1 1 2 3 2 -1 -2 -3 -3 -1 2 3 -0 -3 -3 -1 8 8 7 6 6 10 9 9 9 10 10 10 10 10 9
5 3 2 4 3 1 -1 -1 2 3 2 2 2 2 3 3 4 4 4 4 4 4 3 3 3 4 5 5 7 7 8 7 8 8 9 8 10 10 9 7 10 10 10
7 6 6 4 0 -3 -1 2 6 6 6 4 3 2 2 2 2 2 3 4 4 5 7 7 7 7 8 7 8 8 8 7 7 5 3 3 7 9 11 10 9 10 10
9 9 8 6 3 2 4 5 8 8 7 7 5 3 3 5 5 4 3 2 3 4 7 7 7 5 6 9 9 9 8 8 8 7 5 4 6 8 9 9 11 11 10
10 9 8 4 -0 -2 4 5 8 8 9 8 7 4 4 4 6 1 -1 -3 -4 0 4 4 4 4 3 2 6 8 8 8 7 7 7 7 6 7 9 10 10 11 10
10 9 4 1 -2 -4 0 8 8 9 7 7 4 5 3 3 1 -3 -6 -7 -9 -7 -3 -2 -7 -2 -2 -5 -2 1 3 3 4 5 7 7 6 9 8 10 10 10 10
10 7 2 0 -2 -4 -3 4 7 8 7 7 3 2 3 2 -1 -4 -7 -9 -8 -8 -9 -11 -11 -7 -5 -7 -6 -4 -3 2 4 6 7 8 6 8 9 9 10 10 10
9 3 0 -1 -3 -3 -6 -3 2 6 7 8 7 5 4 3 -0 -2 -2 -5 -8 -8 -8 -8 -8 -8 -6 -6 -4 -5 -5 -1 1 3 5 7 7 7 7 8 9 10 10
4 1 -1 -3 -4 -3 -3 -4 -0 6 8 8 8 8 6 5 1 -1 -1 -2 -3 -2 -4 -6 -7 -10 -12 -13 -14 -13 -10 -8 -4 -1 3 5 6 6 6 6 7 7 7
1 0 -1 -3 -3 -2 -2 -3 -2 1 3 4 4 4 2 -1 -4 -5 -4 -3 -2 -1 -2 -3 -5 -11 -11 -12 -12 -12 -12 -12 -12 -10 -7 -6 -5 -1 4 6 7 7 7
1 -0 -3 -3 -2 -2 -3 -3 -3 -4 -4 -4 -2 -3 -3 -4 -4 -5 -6 -6 -5 -3 -4 -5 -8 -10 -9 -8 -8 -8 -9 -9 -8 -9 -8 -9 -8 -10 -9 -1 3 6 8
-0 -2 -3 -3 -2 -3 -4 -4 -4 -4 -5 -5 -4 -4 -4 -3 -4 -4 -4 -5 -7 -6 -6 -6 -7 -8 -6 -6 -8 -9 -9 -10 -10 -10 -9 -7 -8 -5 -4 -4 -5 -2 2
-2 -3 -3 -3 -3 -4 -4 -4 -4 -5 -4 -4 -5 -5 -4 -4 -4 -4 -3 -3 -4 -7 -7 -7 -6 -6 -6 -6 -8 -9 -7 -6 -7 -9 -10 -9 -8 -5 -2 -3 -3 -2 -0
-3 -3 -3 -4 -3 -3 -3 -3 -4 -4 -4 -4 -4 -4 -4 -5 -5 -5 -4 -3 -3 -4 -4 -5 -5 -5 -5 -5 -7 -7 -6 -7 -7 -9 -10 -11 -10 -11 -12 -10 -6 -6 -5
-4 -4 -4 -4 -3 -3 -3 -3 -3 -3 -3 -3 -3 -3 -4 -4 -4 -4 -5 -4 -3 -3 -3 -4 -4 -5 -4 -4 -5 -5 -5 -6 -6 -7 -9 -10 -11 -10 -8 -11 -12 -12 -7
-4 -4 -3 -3 -3 -3 -3 -2 -2 -2 -2 -2 -2 -2 -2 -3 -4 -4 -4 -4 -3 -3 -3 -3 -4 -4 -4 -4 -4 -4 -3 -5 -6 -7 -7 -8 -10 -11 -13 -15 -16 -18 -17
-4 -3 -3 -3 -3 -3 -2 -2 -2 -1 -1 -1 -1 -1 -1 -1 -3 -4 -4 -4 -3 -2 -2 -3 -3 -4 -3 -3 -3 -3 -4 -8 -12 -12 -9 -8 -10 -11 -17 -20 -22 -22 -19
-3 -2 -2 -1 -2 -2 -2 -1 -0 -0 -0 -0 -0 -0 -0 -0 -0 -3 -4 -4 -3 -1 -2 -3 -3 -2 -2 -2 -3 -6 -9 -9 -7 -8 -10 -8 -10 -16 -17 -20 -22 -22 -22
-2 -2 -2 -2 -1 -1 0 0 0 -0 -0 -0 -1 -2 -1 -1 -1 -0 -1 -4 -1 -1 -2 -2 -1 -2 -3 -3 -2 -2 -2 -3 -7 -13 -12 -13 -14 -14 -15 -17 -18 -13 -16
Wind_Speed
5 8 10 9 7 9 10 10 10 10 8 7 7 9 11 14 14 14 13 11 10 8 7 6 7 8 8 8 7 8 8 9 6 3 6 6 8 7 5 4 5 5 5
6 8 8 6 6 5 6 8 8 8 8 8 8 7 9 9 11 11 10 10 9 8 3 4 10 10 10 10 11 10 9 8 8 7 5 7 7 7 7 7 7 7 8
7 9 8 6 7 5 5 3 5 6 6 6 6 7 7 8 8 7 7 8 11 4 4 4 10 11 13 12 12 13 12 8 6 6 4 6 7 7 8 8 8 8 9
7 7 7 6 4 5 5 3 4 6 6 5 4 5 7 8 10 11 11 13 14 9 12 13 9 9 8 12 11 12 12 9 7 8 6 5 9 8 8 7 8 10 10
8 6 7 7 7 7 6 3 3 2 2 3 3 5 9 10 12 13 15 13 14 17 19 12 7 7 8 14 16 13 11 12 18 13 9 8 10 10 11 10 9 9 13
10 11 10 9 10 8 5 4 3 1 0 2 3 3 5 7 10 13 17 17 12 13 11 9 8 7 7 9 11 16 14 16 21 15 13 13 12 13 12 15 12 10 12
13 13 11 9 7 6 4 3 1 0 1 2 4 5 6 8 9 9 10 10 9 8 9 10 10 9 10 11 15 17 19 16 16 11 16 13 14 17 13 16 13 13 15
10 10 8 7 5 4 4 5 4 3 4 6 6 7 7 6 6 5 6 6 7 7 8 7 8 7 8 12 16 20 25 16 15 13 15 15 13 16 16 16 16 14 16
7 5 3 2 1 3 5 6 6 6 6 8 6 7 7 5 4 3 3 5 6 6 6 6 6 6 6 8 11 11 11 14 13 13 17 19 17 21 18 19 20 17 17
5 3 1 3 5 7 7 7 7 8 5 6 6 6 6 6 6 5 4 4 5 6 6 5 6 7 7 8 9 11 11 11 13 15 16 18 20 20 21 21 20 20 18
7 5 3 5 6 9 9 8 6 4 4 6 5 6 6 6 5 4 5 5 6 5 7 7 7 8 9 10 12 11 13 15 16 16 14 15 17 19 21 19 17 18 19
9 6 4 5 7 10 9 8 6 5 6 8 7 7 7 7 7 6 6 7 7 7 8 9 10 10 11 11 13 14 14 17 18 17 16 17 15 16 17 20 20 19 19
10 9 7 5 7 9 7 7 7 8 8 9 8 9 10 10 10 10 10 11 10 11 11 12 13 12 12 12 13 15 18 19 20 20 20 20 19 15 19 20 20 21 22
17 13 7 6 10 11 9 8 9 11 11 11 10 11 12 13 13 13 13 13 13 13 13 14 15 15 15 14 15 16 15 16 16 20 19 20 20 20 18 20 22 21 22
19 15 10 10 12 10 11 10 10 11 13 14 15 15 15 15 15 15 16 15 14 15 15 15 15 16 17 17 17 16 16 17 17 18 20 24 23 24 26 25 25 26 27
20 14 10 9 10 10 11 12 12 13 15 17 18 18 18 19 18 19 19 18 17 17 17 17 16 16 16 16 16 15 14 15 16 16 16 17 22 25 27 27 30 31 32
16 14 11 11 11 9 11 11 12 14 16 18 19 20 20 19 20 20 20 21 21 20 19 18 17 16 16 14 13 13 13 14 15 17 18 20 21 22 23 25 25 27 31
18 16 12 11 11 11 13 13 12 14 17 18 18 19 19 18 18 20 21 22 22 22 21 20 18 16 15 14 14 15 15 16 16 16 17 20 21 21 22 24 26 26 26
19 15 11 11 10 13 13 15 16 18 18 17 19 20 20 21 21 21 21 21 22 22 22 21 19 19 17 16 16 16 16 16 17 18 14 14 18 18 18 19 22 25 27
19 14 10 10 11 11 11 13 15 18 19 19 19 20 22 24 26 24 22 22 22 23 24 23 21 21 20 18 19 19 19 20 21 18 18 13 12 17 18 19 19 18 21
17 12 8 8 8 10 10 12 15 19 22 24 22 22 22 23 26 27 27 27 26 26 25 25 23 24 23 21 20 22 22 22 21 20 22 23 22 20 19 21 23 22 19
6 6 7 9 11 11 12 12 16 20 23 27 28 28 29 28 28 29 32 32 33 32 31 30 30 28 27 23 21 20 16 20 25 25 27 29 30 27 25 27 25 24 21
5 5 8 12 13 14 15 16 17 20 24 28 30 32 32 34 35 34 35 36 38 38 37 35 33 31 29 27 26 19 9 10 21 29 30 35 34 33 35 32 30 28 26
10 10 12 14 15 15 17 18 21 25 31 31 33 35 36 36 39 40 40 39 41 41 40 36 32 32 32 30 27 22 17 14 9 18 29 34 36 37 35 35 33 28 26
7 10 12 14 14 15 14 16 23 30 31 34 35 38 38 40 41 42 41 41 42 41 36 34 35 34 33 29 23 18 18 17 19 21 28 38 41 38 36 35 33 32 28
11 12 13 12 10 11 19 25 31 32 36 41 43 43 37 36 34 34 36 40 42 41 36 35 32 28 25 25 22 24 22 17 20 25 30 35 36 40 38 36 33 30 32
Wind_Direction
130 141 145 150 165 151 161 157 164 170 165 154 158 165 155 153 163 170 169 166 154 153 165 182 203 198 200 194 214 209 211 216 219 274 318 311 306 280 262 234 223 206 187
129 117 117 131 150 154 153 166 180 176 168 169 169 180 176 165 169 170 170 165 158 141 152 215 218 210 218 222 228 230 225 230 243 231 271 295 284 272 262 257 255 223 204
113 116 126 141 147 153 121 152 173 157 158 164 176 183 188 189 197 197 197 193 183 221 292 259 259 266 241 228 237 244 247 229 233 248 212 262 265 233 242 245 247 237 227
130 113 122 126 136 143 114 122 134 140 153 157 174 195 198 197 207 210 220 222 214 248 289 294 275 263 254 245 242 255 254 274 282 265 264 243 249 225 215 246 249 243 248
155 122 120 114 105 92 95 119 113 136 179 227 233 196 210 213 216 224 232 229 238 274 292 303 284 255 248 253 260 250 277 291 267 224 227 233 222 238 237 227 243 267 255
120 113 106 102 108 110 108 88 62 54 273 279 262 247 239 238 237 242 249 248 277 279 295 294 296 280 259 236 245 228 246 279 249 245 222 215 232 236 253 231 237 267 274
116 111 110 105 100 100 84 71 50 337 281 270 278 287 275 263 256 254 263 273 283 294 298 297 308 308 291 275 243 235 251 277 249 236 243 236 232 243 250 237 245 270 275
126 130 122 109 107 75 36 9 355 325 279 262 267 276 274 266 265 261 263 278 283 275 275 283 291 289 285 277 259 261 261 265 251 236 246 253 250 239 246 245 250 268 276
154 160 182 160 100 20 0 342 341 331 291 265 268 268 271 279 281 273 265 267 269 275 272 272 280 289 290 279 280 277 271 258 255 256 261 251 241 234 231 250 253 254 266
169 165 300 300 326 337 327 321 342 348 296 284 267 257 260 274 281 293 302 307 295 291 286 275 282 286 281 271 270 281 283 285 284 277 272 266 257 247 245 259 250 250 255
206 212 273 311 313 315 309 310 341 349 336 322 300 266 272 282 278 291 278 277 276 267 265 272 267 276 285 282 278 269 276 282 281 282 283 280 258 250 250 253 245 255 259
222 232 258 279 301 300 287 281 289 305 307 311 298 267 275 280 266 274 273 272 271 262 261 274 281 285 282 278 276 279 275 276 276 277 281 280 279 256 246 235 237 245 255
221 229 244 262 315 312 285 263 267 281 294 302 300 279 277 276 276 281 290 294 294 286 281 282 284 281 287 292 286 280 282 282 284 285 279 272 270 264 244 247 249 249 252
227 231 242 284 323 317 291 265 265 276 285 289 297 291 284 278 279 281 287 289 290 287 284 285 286 287 287 288 289 290 293 285 295 269 268 269 265 265 260 251 255 256 254
222 225 254 297 310 307 289 278 275 277 288 287 293 295 288 285 280 280 284 282 279 280 280 278 276 278 280 284 284 281 281 282 284 286 274 260 265 270 269 268 261 258 260
212 232 254 289 305 316 319 286 277 275 279 284 287 289 287 287 284 283 281 279 278 280 281 281 281 282 282 282 288 293 292 288 289 290 283 270 265 268 270 273 267 264 261
235 238 258 282 288 302 325 304 282 278 279 280 281 284 287 285 286 285 280 279 280 282 284 281 283 284 283 284 285 291 297 299 299 301 302 297 286 272 268 270 275 269 262
234 239 250 276 286 304 320 323 309 303 303 297 290 288 287 289 289 288 284 283 279 276 277 279 282 281 282 286 291 296 301 306 310 309 308 310 313 305 287 275 273 273 266
233 235 256 277 291 314 320 324 322 317 313 308 303 301 294 292 295 288 287 290 280 275 275 274 272 274 277 281 287 291 296 299 302 310 315 307 311 312 308 299 283 279 278
228 231 256 280 316 318 321 326 321 315 310 307 306 306 302 295 295 289 285 288 279 273 274 272 271 272 272 279 283 286 293 296 298 298 306 316 312 300 295 300 302 293 288
219 228 262 306 322 321 317 331 330 323 312 303 300 297 294 291 288 286 283 282 277 273 278 273 269 268 269 273 277 282 290 297 294 294 294 304 310 314 305 290 292 297 297
231 250 281 302 300 312 308 320 337 337 324 308 301 294 289 284 282 283 275 272 271 268 267 266 265 264 264 264 265 278 292 287 291 291 297 302 307 309 308 305 301 292 289
246 272 290 298 291 290 292 293 306 311 310 312 306 299 298 292 284 276 271 267 266 264 261 262 257 253 254 256 256 256 263 263 282 295 294 298 300 304 304 304 302 299 292
252 272 289 289 290 296 294 300 304 300 295 294 296 297 299 296 287 279 271 265 263 258 255 252 244 240 241 242 241 240 241 260 292 300 293 297 298 299 299 301 303 301 290
265 285 276 275 276 279 292 302 309 302 297 303 303 302 299 296 288 278 271 269 258 250 247 241 235 231 231 227 226 230 247 261 285 298 301 297 294 298 299 300 302 301 297
263 252 255 262 271 296 309 302 302 300 303 305 306 305 302 300 298 291 280 260 247 242 236 231 221 217 221 224 231 242 256 286 297 302 300 299 297 299 300 299 298 296 298
Height
1532 1533 1533 1533 1536 1536 1537 1536 1538 1540 1539 1538 1538 1539 1539 1537 1541 1540 1539 1540 1539 1539 1542 1543 1544 1541 1542 1538 1541 1539 1540 1541 1541 1544 1548 1548 1548 1551 1551 1552 1552 1552 1553
1532 1531 1532 1534 1537 1537 1537 1536 1538 1539 1538 1538 1540 1541 1539 1540 1542 1539 1539 1541 1540 1540 1544 1541 1543 1538 1539 1540 1541 1542 1541 1539 1539 1538 1540 1547 1547 1548 1549 1550 1552 1552 1553
1531 1532 1533 1534 1535 1537 1535 1539 1539 1537 1540 1541 1541 1541 1541 1542 1542 1539 1541 1542 1540 1540 1543 1542 1542 1540 1539 1540 1541 1541 1541 1539 1540 1542 1536 1542 1545 1546 1548 1550 1551 1551 1552
1532 1533 1533 1534 1538 1539 1536 1540 1541 1540 1540 1540 1541 1541 1541 1541 1542 1538 1542 1539 1540 1537 1542 1541 1540 1539 1539 1542 1540 1542 1542 1542 1540 1540 1540 1539 1543 1544 1546 1549 1549 1551 1551
1533 1535 1536 1536 1538 1538 1538 1540 1540 1540 1540 1541 1541 1539 1540 1541 1539 1540 1538 1538 1540 1539 1539 1538 1538 1539 1540 1541 1541 1542 1543 1541 1540 1538 1539 1540 1542 1543 1544 1547 1548 1549 1549
1536 1536 1538 1539 1538 1539 1544 1542 1542 1541 1541 1542 1541 1538 1539 1539 1539 1538 1537 1536 1539 1537 1537 1535 1536 1538 1538 1539 1539 1538 1538 1539 1539 1538 1537 1539 1541 1542 1543 1546 1547 1548 1548
1538 1537 1539 1541 1543 1542 1544 1543 1544 1542 1541 1541 1541 1538 1538 1538 1538 1538 1538 1537 1537 1537 1536 1535 1535 1536 1536 1537 1536 1535 1536 1536 1535 1534 1538 1539 1541 1542 1542 1544 1545 1547 1548
1539 1539 1541 1542 1544 1544 1545 1543 1543 1541 1541 1541 1540 1539 1538 1538 1537 1538 1538 1537 1536 1536 1535 1534 1534 1534 1533 1533 1533 1533 1532 1532 1533 1535 1536 1540 1539 1540 1541 1541 1543 1544 1546
1540 1541 1542 1543 1544 1543 1543 1542 1541 1540 1540 1539 1539 1538 1539 1539 1539 1538 1538 1536 1536 1535 1534 1533 1533 1532 1531 1531 1530 1530 1531 1531 1533 1534 1536 1537 1536 1536 1536 1538 1539 1541 1543
1541 1541 1543 1543 1544 1543 1542 1542 1541 1541 1540 1540 1539 1538 1538 1538 1538 1537 1536 1535 1535 1534 1533 1533 1532 1531 1531 1530 1530 1529 1529 1528 1530 1532 1532 1533 1533 1534 1535 1537 1537 1539 1540
1540 1541 1541 1543 1543 1543 1543 1543 1543 1543 1542 1541 1540 1538 1538 1537 1536 1536 1536 1535 1534 1533 1532 1531 1530 1530 1529 1529 1528 1528 1528 1527 1529 1528 1527 1528 1530 1531 1533 1535 1536 1538 1538
1539 1540 1541 1542 1542 1542 1542 1543 1543 1543 1542 1541 1539 1538 1537 1536 1536 1536 1536 1535 1535 1534 1532 1530 1529 1528 1527 1527 1526 1526 1527 1525 1525 1524 1525 1525 1526 1527 1530 1531 1532 1533 1534
1539 1540 1541 1541 1541 1541 1541 1541 1541 1541 1541 1539 1538 1537 1536 1536 1535 1535 1534 1534 1533 1532 1531 1530 1528 1527 1526 1525 1524 1524 1523 1522 1522 1521 1522 1522 1522 1523 1524 1526 1528 1528 1530
1537 1538 1539 1539 1539 1539 1539 1540 1540 1539 1539 1538 1537 1536 1535 1534 1533 1533 1532 1532 1531 1530 1529 1529 1527 1526 1525 1525 1523 1522 1521 1521 1520 1521 1521 1519 1519 1520 1522 1523 1523 1524 1525
1535 1538 1539 1539 1539 1540 1539 1538 1537 1537 1537 1536 1535 1535 1534 1533 1532 1531 1530 1529 1528 1528 1527 1526 1525 1524 1523 1522 1522 1522 1521 1520 1519 1518 1517 1518 1519 1519 1518 1518 1519 1520 1521
1534 1536 1537 1538 1538 1538 1536 1535 1535 1534 1535 1534 1533 1532 1532 1531 1530 1530 1528 1527 1525 1525 1524 1523 1523 1522 1522 1521 1519 1518 1518 1518 1516 1515 1514 1515 1515 1515 1514 1513 1514 1515 1516
1532 1535 1536 1536 1536 1536 1535 1534 1533 1532 1532 1531 1530 1530 1528 1527 1526 1525 1525 1524 1523 1522 1521 1520 1520 1520 1519 1518 1517 1517 1516 1515 1514 1513 1512 1511 1511 1511 1510 1509 1509 1509 1512
1531 1532 1534 1534 1534 1534 1533 1533 1532 1531 1529 1528 1527 1527 1525 1524 1523 1521 1520 1520 1519 1519 1518 1518 1517 1517 1516 1515 1514 1513 1512 1511 1510 1510 1508 1507 1505 1504 1505 1504 1504 1504 1505
1530 1531 1533 1533 1533 1532 1531 1530 1529 1527 1526 1525 1523 1522 1521 1520 1519 1518 1517 1516 1515 1515 1514 1513 1513 1513 1512 1511 1510 1509 1508 1507 1505 1504 1503 1503 1502 1501 1500 1500 1499 1498 1498
1529 1531 1532 1532 1531 1530 1528 1526 1526 1525 1524 1523 1521 1519 1517 1516 1514 1514 1513 1511 1510 1510 1510 1509 1508 1507 1506 1506 1505 1504 1503 1502 1501 1500 1499 1498 1498 1498 1497 1497 1496 1495 1494
1528 1530 1531 1531 1529 1527 1526 1523 1522 1520 1519 1518 1517 1516 1514 1513 1511 1509 1508 1507 1505 1504 1504 1504 1504 1503 1502 1501 1500 1499 1498 1496 1496 1496 1495 1494 1493 1493 1493 1492 1492 1491 1490
1529 1529 1529 1529 1527 1525 1524 1522 1520 1518 1516 1514 1512 1510 1508 1507 1506 1504 1502 1501 1500 1498 1497 1496 1496 1496 1497 1496 1495 1494 1492 1491 1489 1489 1489 1489 1489 1488 1487 1487 1486 1485 1484
1527 1528 1527 1525 1524 1522 1521 1519 1517 1514 1512 1509 1507 1504 1502 1499 1497 1496 1494 1493 1492 1491 1489 1489 1488 1489 1490 1490 1489 1489 1488 1484 1483 1483 1482 1483 1483 1482 1482 1481 1480 1479 1478
1524 1524 1523 1523 1521 1520 1518 1515 1512 1510 1507 1505 1502 1499 1495 1493 1490 1487 1486 1484 1483 1482 1482 1482 1482 1482 1482 1482 1482 1481 1481 1480 1479 1477 1476 1474 1475 1474 1474 1474 1472 1472 1471
1522 1522 1520 1520 1519 1518 1514 1511 1508 1504 1500 1495 1492 1488 1486 1484 1482 1480 1478 1477 1475 1477 1477 1477 1476 1473 1474 1474 1475 1476 1476 1474 1474 1473 1466 1467 1466 1466 1466 1466 1466 1465 1465
1520 1519 1518 1517 1515 1513 1510 1507 1503 1498 1493 1487 1483 1479 1476 1473 1470 1468 1467 1466 1467 1467 1467 1468 1467 1466 1467 1466 1465 1467 1468 1469 1467 1468 1464 1460 1460 1457 1458 1459 1458 1459 1459